Dewpoint
66 67 68 69 68 68 67 67 67 68 69 69 70 71 72 73 73 73 72 72 73 73 73 73 73 73 73 73 73 73 73 73 73 73 73 72 72 72 72 72 71 71 71 72 71 71 70 69 67 66 66 66 66 65 65 66 66 67 68 69 69 70 71 73 74 74 73 71 71 70 70 70 69 69 69 68 68 68 67 67 67 67 67 67 68 68 68 68 68 69 69 70 70 70 69 68 67 67 67 67 67 67 67
66 67 68 69 69 68 67 67 67 68 69 69 70 71 72 72 72 72 72 72 72 73 73 73 73 73 73 73 73 73 73 73 73 73 73 72 72 71 71 71 71 71 72 72 71 71 70 67 67 66 66 66 66 66 66 66 66 67 67 68 69 70 71 73 74 73 72 71 71 70 70 70 69 69 69 68 68 68 68 67 67 67 67 67 67 68 68 68 68 69 69 70 71 70 69 68 67 67 67 67 66 66 66
65 67 68 69 69 68 67 67 67 68 68 69 70 71 72 72 72 72 72 72 72 73 73 73 73 73 73 73 73 73 73 73 73 73 72 72 71 71 71 71 71 71 72 71 71 70 69 67 67 66 66 66 66 66 66 66 66 66 67 68 69 70 72 73 73 73 71 71 70 70 70 69 69 69 68 68 68 68 68 67 67 67 67 67 67 67 67 67 68 68 69 70 70 70 69 68 67 66 66 66 66 66 66
64 66 68 69 69 68 67 67 67 67 68 69 70 71 71 72 72 71 71 71 72 72 73 73 73 73 73 73 72 72 72 73 73 73 72 72 71 71 71 71 71 71 71 71 70 69 67 67 66 66 66 65 65 65 65 65 65 66 67 68 69 70 72 73 73 72 71 71 70 70 69 69 69 68 68 68 68 68 68 67 67 67 67 67 67 67 67 67 67 67 68 69 70 70 69 68 67 66 66 66 65 65 65
64 65 67 69 69 69 68 67 67 67 68 68 69 70 71 71 71 71 71 71 72 72 73 73 73 73 73 72 72 72 72 72 72 72 72 71 71 71 71 71 71 71 71 71 70 68 67 66 66 66 66 65 65 65 65 65 66 66 67 68 69 71 72 72 72 71 71 70 70 70 69 69 69 68 68 68 68 68 67 67 67 67 67 67 67 67 67 67 67 67 67 68 68 69 68 67 67 66 66 65 65 65 65
63 65 67 69 69 69 68 67 67 67 67 68 69 70 71 71 71 71 71 71 72 72 72 72 72 72 72 72 72 72 72 72 72 72 72 71 71 71 71 71 71 71 71 70 69 68 67 66 66 66 66 66 66 65 65 66 66 66 67 67 70 71 72 72 71 71 70 70 70 70 69 69 69 68 68 68 67 67 67 67 67 67 67 67 67 66 66 66 66 66 67 67 67 67 67 67 66 66 65 65 65 65 65
62 64 66 68 69 69 69 68 67 67 67 68 69 70 71 71 71 71 71 71 71 72 73 72 72 72 72 72 72 72 72 72 72 72 72 71 71 71 71 71 71 71 70 69 68 67 67 66 65 65 66 66 65 65 65 65 65 65 66 67 70 72 72 71 71 71 70 70 70 70 69 69 69 68 68 67 67 67 67 67 67 67 67 67 67 67 66 66 66 66 66 67 67 67 67 67 66 66 65 65 66 66 66
62 63 65 67 68 69 69 69 68 68 67 68 68 70 71 71 71 71 71 71 72 72 72 72 72 72 72 72 72 72 72 72 72 72 71 71 71 71 71 71 71 70 69 69 68 67 67 66 65 65 65 66 65 65 65 65 64 65 66 67 70 72 72 71 71 70 70 70 70 69 69 69 68 68 68 68 67 67 67 67 67 67 67 67 67 67 66 66 66 66 66 66 67 67 66 66 66 65 65 65 66 66 66
62 63 64 66 67 68 69 69 69 68 68 67 68 69 70 71 71 71 71 71 72 72 72 72 72 72 72 72 72 72 72 72 72 72 71 71 71 71 71 71 70 70 69 68 67 67 67 66 65 65 65 65 65 65 65 65 64 64 66 67 69 71 72 71 71 70 70 70 70 69 69 69 68 68 68 68 67 67 67 67 67 67 67 67 67 67 66 66 66 66 66 66 66 66 66 66 65 65 65 66 66 66 66
61 62 64 65 67 68 69 70 69 69 68 68 68 69 70 71 71 71 71 71 71 72 72 72 72 72 72 72 72 71 71 72 72 72 72 71 71 71 71 71 70 69 68 68 67 67 67 65 65 65 65 65 65 66 66 65 65 65 66 67 70 72 73 72 71 71 70 70 70 69 69 69 68 68 68 68 67 67 67 67 67 67 67 67 67 66 66 66 66 66 66 66 66 66 66 66 65 65 65 66 66 65 65
61 62 63 65 66 67 68 69 69 69 68 68 68 69 69 70 71 71 71 71 71 72 72 72 72 71 71 71 71 71 71 72 72 72 72 72 71 71 71 70 69 69 68 67 67 67 67 65 65 65 65 65 66 66 66 65 65 65 66 68 70 72 72 72 71 71 70 70 70 69 69 69 68 68 68 68 67 67 67 67 67 67 67 67 67 66 66 66 66 66 66 66 66 66 66 65 65 65 65 65 65 64 64
61 62 62 64 66 67 68 69 69 69 68 68 68 69 69 70 71 71 71 71 71 72 72 72 71 71 71 71 71 71 71 71 72 72 72 72 72 71 71 70 69 68 68 67 67 67 66 65 64 64 65 65 66 66 66 66 65 65 67 69 71 71 72 72 72 71 71 70 70 69 69 69 68 68 68 68 67 67 67 67 67 67 67 67 67 66 66 66 66 66 66 66 66 66 66 65 65 65 65 65 64 64 64
60 61 62 63 65 67 67 68 69 69 68 68 68 68 69 70 70 71 71 71 71 71 72 71 71 71 71 71 71 71 71 71 71 72 72 72 72 71 70 69 68 68 67 67 67 66 64 64 64 64 64 65 65 65 66 66 66 66 67 70 71 71 72 72 72 72 71 70 70 69 69 69 68 68 68 68 67 67 67 67 67 67 67 67 67 66 66 66 67 66 66 66 66 65 65 65 65 65 64 64 64 64 64
60 61 62 63 65 66 66 68 69 69 68 67 67 67 67 69 70 70 71 71 71 71 71 71 71 71 71 71 71 71 71 71 71 71 72 72 71 71 70 69 68 67 67 67 66 65 64 63 63 64 64 65 65 65 66 66 66 67 68 70 71 71 71 72 72 72 72 71 70 69 69 68 68 68 68 68 67 67 67 67 67 67 67 66 66 66 66 66 66 66 66 66 66 65 65 65 65 65 64 64 64 64 65
61 61 62 63 64 65 65 67 68 68 67 67 66 66 67 68 69 70 70 71 71 71 71 71 71 71 71 71 71 71 71 71 71 71 71 71 71 70 69 68 68 67 67 66 65 64 63 63 63 63 64 64 65 65 66 66 67 67 70 71 71 70 70 71 72 72 72 71 71 69 69 68 68 68 68 68 67 67 67 67 67 67 66 66 66 66 66 66 66 66 66 66 65 65 65 65 65 65 65 65 65 65 65
61 62 62 63 63 64 65 67 67 68 67 66 66 66 66 67 68 69 70 70 71 71 71 71 71 71 71 71 71 71 70 71 71 71 71 71 71 70 69 68 67 67 66 65 64 64 63 62 63 63 64 64 64 65 65 66 67 68 70 71 71 70 70 70 71 72 72 72 71 70 69 68 68 68 68 68 68 67 67 67 67 67 66 66 67 67 66 66 66 66 66 65 65 65 65 65 65 65 65 65 65 65 65
60 61 62 62 63 64 65 67 67 67 67 66 66 66 66 67 67 68 69 70 70 71 71 71 71 71 71 71 71 70 69 70 70 70 71 70 70 69 68 68 67 66 65 64 64 64 63 62 63 63 63 63 64 64 65 66 67 68 70 71 71 70 69 69 70 71 72 72 71 70 69 68 68 68 68 68 68 67 67 67 67 67 67 67 67 67 66 66 66 66 66 65 65 65 65 65 65 65 65 65 65 65 65
60 61 62 62 63 64 66 67 67 67 66 66 66 66 66 66 67 67 69 69 70 71 71 71 71 71 71 71 70 69 69 69 69 70 70 70 69 69 68 68 67 67 65 65 64 64 63 62 62 63 63 63 64 64 65 66 67 69 71 71 71 70 69 69 69 70 71 72 71 71 69 68 68 68 68 68 67 67 67 67 67 67 67 67 67 67 67 66 66 66 66 65 65 65 64 65 65 65 65 65 65 65 65
60 62 62 62 63 64 66 66 66 66 65 65 66 66 66 66 67 67 68 69 70 71 71 71 71 71 71 71 70 69 69 68 69 69 70 69 68 68 68 68 68 67 66 65 64 63 62 62 62 63 63 63 64 64 65 66 67 69 71 71 71 70 69 68 69 69 70 71 71 71 69 68 68 68 68 68 67 67 67 67 67 67 67 67 67 67 67 66 66 66 66 65 65 64 64 64 65 65 65 65 65 65 65
61 62 62 63 64 65 66 66 65 65 65 65 65 66 66 66 66 67 67 68 69 70 71 71 71 71 71 70 70 69 69 68 68 69 70 69 68 68 68 68 68 67 67 66 65 63 62 62 62 63 63 63 64 64 65 66 67 70 71 71 71 70 69 68 68 68 69 71 71 71 70 68 68 68 67 67 67 67 67 67 67 67 67 67 67 67 66 66 66 66 66 65 64 64 64 64 65 65 64 65 65 65 65
61 62 63 64 65 65 65 64 64 64 64 65 65 66 66 66 66 66 67 68 69 70 71 71 71 70 70 70 70 69 69 68 68 69 69 69 69 69 69 68 68 68 67 66 65 63 63 62 62 63 63 63 64 64 65 66 67 70 71 71 71 70 69 68 68 68 69 70 71 71 71 69 68 67 67 67 67 67 67 67 67 67 67 67 67 67 66 66 66 66 66 65 64 64 64 65 65 64 64 64 65 65 65
62 62 63 64 64 64 63 63 63 64 64 65 65 65 65 65 66 66 67 67 68 69 71 71 70 70 70 70 70 69 68 68 68 68 69 69 69 69 69 68 68 67 67 66 65 64 63 62 62 63 63 63 63 64 65 67 68 70 71 71 71 70 69 69 68 68 68 69 71 71 71 70 69 68 67 67 67 67 66 66 67 67 67 67 67 67 66 66 66 66 66 65 65 65 65 65 65 65 64 64 65 65 66
62 62 62 62 62 62 62 62 63 63 64 65 65 65 65 66 66 66 67 67 68 69 70 70 70 70 70 70 70 69 68 68 68 68 68 69 69 69 69 68 68 67 67 66 65 64 63 63 63 63 63 63 63 64 65 67 68 69 70 71 71 70 69 69 68 68 68 69 70 71 71 71 70 69 67 67 67 66 66 66 67 67 67 67 67 67 66 66 66 66 66 66 65 65 66 66 66 65 65 65 65 65 66
62 62 62 62 62 62 62 62 63 63 64 65 65 65 65 66 66 67 67 67 68 68 70 70 70 70 70 70 69 69 68 68 68 68 68 69 69 69 69 68 67 67 67 66 65 64 63 63 63 63 63 63 63 64 65 67 68 69 70 70 70 70 69 69 69 69 68 68 69 70 70 71 71 70 68 67 67 66 66 66 66 67 67 67 67 66 66 66 66 66 66 66 66 66 66 66 66 66 65 65 65 66 66
62 62 62 62 62 62 62 62 63 63 64 65 65 65 65 66 66 67 67 67 67 68 69 70 70 70 70 70 69 69 68 68 68 69 68 68 69 69 68 68 67 67 67 66 65 64 63 64 64 63 63 63 63 64 65 66 67 69 70 70 70 70 69 69 69 70 70 69 69 69 69 70 71 71 69 68 67 67 66 66 67 67 67 67 67 66 66 66 66 67 67 66 66 66 66 66 66 66 65 65 65 65 65
62 62 62 62 62 62 62 63 63 63 64 64 65 64 64 65 66 67 67 67 67 68 68 69 70 70 69 69 69 68 68 68 68 69 68 68 68 68 68 67 67 67 67 66 65 64 63 64 64 64 64 63 63 63 64 65 67 68 69 70 70 69 69 69 70 71 71 70 69 68 68 69 70 71 70 69 68 67 67 67 67 67 67 67 67 66 66 66 66 67 67 66 66 66 65 65 65 65 65 65 65 65 65
62 62 62 62 62 62 62 63 64 64 64 64 64 64 64 65 66 67 67 67 67 67 67 69 69 69 69 69 69 68 68 67 68 68 68 67 68 68 67 67 67 67 66 66 65 64 63 64 64 64 64 63 63 63 64 66 67 68 69 69 70 69 69 69 70 71 71 71 69 68 68 68 69 69 69 69 68 68 68 68 68 68 68 67 67 66 66 66 66 67 67 66 66 65 65 65 65 65 65 65 65 65 65
62 62 62 62 62 63 63 63 64 64 63 64 64 64 64 65 66 66 67 67 67 67 67 68 68 69 69 69 68 68 68 67 67 68 67 67 67 67 67 67 67 66 66 66 65 64 63 64 64 65 65 63 63 63 64 66 67 67 68 69 69 69 69 69 70 71 71 71 70 69 67 67 68 68 68 68 68 68 68 68 68 68 68 67 67 67 66 66 67 67 66 66 65 65 65 64 64 64 65 65 65 65 66
62 62 62 63 63 63 63 64 64 64 64 64 64 64 64 65 66 66 67 67 67 67 67 67 68 68 68 68 68 68 67 67 67 67 67 67 67 67 67 66 66 66 66 65 65 64 63 64 65 65 65 64 64 64 64 65 66 67 67 68 69 69 69 69 70 70 71 71 70 69 68 67 67 67 67 67 67 67 68 68 68 68 68 67 67 67 67 67 67 67 66 66 65 65 64 64 64 64 64 65 65 66 67
62 63 63 63 64 64 64 64 64 64 64 64 64 64 64 65 66 67 67 67 67 67 67 67 67 67 68 68 67 67 67 67 67 67 67 67 67 67 66 66 66 65 65 65 64 64 63 63 65 66 66 65 64 64 64 64 65 66 67 67 68 68 69 69 69 70 70 70 70 69 68 67 67 67 67 67 67 67 67 67 68 68 67 67 67 67 67 67 67 67 66 66 65 65 64 64 64 64 64 65 66 66 67
63 63 63 64 64 64 64 64 64 64 64 64 64 64 64 65 66 66 67 67 67 67 67 67 67 67 67 67 67 67 67 67 66 67 67 67 67 66 66 65 65 65 65 65 64 64 63 64 65 66 66 65 65 64 64 65 65 66 67 67 67 68 68 69 69 69 69 69 69 69 69 68 67 67 67 67 67 67 67 67 67 67 67 67 67 67 67 67 67 67 66 66 65 65 64 64 64 64 64 64 65 66 67
63 63 63 64 63 63 64 63 63 63 64 64 64 63 64 64 65 66 67 67 67 67 67 67 67 67 67 67 67 66 67 66 66 66 67 67 66 66 66 65 65 65 65 65 65 64 64 64 65 66 67 66 65 64 64 64 65 65 66 66 67 67 67 68 68 68 68 68 68 68 69 69 68 68 68 67 67 67 67 67 67 67 67 67 67 67 67 67 67 67 67 66 65 65 64 64 64 63 64 64 65 66 67
63 63 63 63 63 63 63 63 63 63 63 63 63 64 64 64 65 65 66 67 67 67 67 67 67 67 67 67 66 66 66 66 66 66 66 66 65 65 65 65 64 65 65 65 65 65 65 65 65 66 67 66 65 65 65 64 65 65 65 65 66 67 67 67 68 68 68 68 68 68 68 69 69 69 69 68 68 67 67 67 67 67 67 66 66 66 67 67 67 67 67 66 65 65 64 64 64 64 64 64 65 66 66
63 63 63 63 63 63 63 62 62 63 63 64 64 64 64 64 65 65 66 67 67 67 67 67 67 67 67 67 66 66 65 65 65 65 65 65 65 64 64 64 64 64 65 65 66 65 66 66 66 67 67 67 66 65 65 64 65 65 66 65 65 65 67 67 67 67 67 67 68 68 68 69 69 69 69 69 68 68 67 67 67 67 66 66 66 66 66 66 67 67 66 66 65 65 64 64 64 64 64 65 65 66 66
64 63 63 63 63 62 62 62 63 63 63 64 64 64 64 64 65 65 66 67 67 67 67 67 67 67 67 67 66 65 65 65 65 65 65 64 64 64 63 63 63 64 65 65 66 66 66 66 67 67 67 67 66 65 65 64 65 65 66 66 65 64 66 67 67 67 67 67 67 68 68 68 69 69 69 68 68 67 67 67 67 67 66 66 66 66 66 66 66 66 66 66 65 65 64 64 64 64 64 65 66 66 66
64 63 63 63 63 62 62 63 63 63 63 64 64 64 64 64 65 66 66 66 66 66 66 66 66 66 66 66 65 65 64 64 65 65 65 64 64 63 62 62 63 64 64 65 65 66 66 66 67 67 67 67 67 66 65 65 65 65 66 66 66 65 65 66 67 67 67 67 67 67 68 68 68 68 68 68 67 67 67 67 67 67 66 66 66 66 66 66 66 66 66 66 65 65 64 64 64 64 65 65 66 66 66
63 63 63 63 63 63 63 63 63 64 63 64 64 64 64 65 65 65 65 66 66 66 66 66 66 66 66 65 65 64 63 63 64 64 64 64 63 62 62 62 63 63 64 64 65 66 66 67 67 67 67 67 67 67 66 65 65 65 66 67 67 67 66 67 67 67 65 66 67 67 68 68 68 68 68 67 67 67 67 67 67 67 67 67 67 67 67 67 67 66 66 66 65 65 65 64 64 64 65 65 66 66 66
63 63 63 63 63 63 63 64 64 64 64 64 64 64 64 64 65 65 65 65 65 66 66 65 65 65 65 65 64 63 63 62 63 63 63 63 62 62 62 63 63 63 64 64 65 65 66 67 67 67 67 67 67 67 66 66 65 66 66 67 67 67 67 68 68 67 65 64 65 66 67 67 67 67 67 67 68 68 68 68 68 68 68 67 67 67 67 67 67 67 67 66 65 65 65 65 64 65 65 65 66 66 66
63 63 63 63 63 64 64 64 64 64 64 64 64 64 64 64 64 64 65 65 65 65 65 65 65 65 64 64 63 62 62 62 62 62 62 62 62 61 62 62 63 64 64 64 65 66 66 67 67 67 67 67 67 67 67 66 66 66 66 67 67 67 68 68 68 67 67 65 64 65 67 67 67 67 68 68 68 69 69 69 69 68 68 67 67 68 68 68 67 67 67 67 66 65 65 65 65 65 65 66 66 66 66
62 63 63 63 64 64 64 64 64 64 64 64 64 64 64 64 64 64 64 65 65 65 65 65 64 64 63 63 62 62 62 62 62 62 62 62 61 61 61 62 63 64 64 65 65 65 66 67 67 67 67 67 67 67 67 67 67 67 67 67 67 68 68 68 68 68 68 67 67 66 66 67 67 67 68 68 69 69 69 69 68 68 67 67 67 67 68 68 68 67 67 67 66 66 65 65 65 65 65 66 66 66 66
62 63 64 63 64 64 64 64 64 64 64 64 64 64 64 64 63 63 64 64 65 65 65 65 64 63 62 62 61 61 60 61 61 62 62 61 60 60 61 62 63 63 64 64 65 65 66 66 67 67 67 67 68 68 67 67 67 67 67 67 68 68 68 67 67 67 68 68 68 67 65 67 67 67 68 68 68 69 69 69 68 67 67 67 67 67 67 67 67 67 67 67 66 66 65 65 65 65 65 66 66 66 66
60 62 63 63 64 64 64 64 64 64 64 63 63 63 63 63 63 63 63 64 64 65 65 65 64 62 61 61 61 60 59 60 61 61 61 61 60 60 61 62 62 63 64 64 64 65 65 66 66 67 67 67 67 67 67 67 67 68 68 68 68 68 67 67 67 67 68 68 68 68 67 67 67 67 67 68 68 68 68 68 67 67 67 66 66 66 66 67 67 67 67 67 66 66 65 65 65 65 65 66 66 66 66
58 60 62 63 63 64 64 64 64 64 63 63 63 63 63 63 63 63 63 64 64 64 64 64 63 62 61 61 60 59 59 59 60 60 60 60 60 60 61 62 62 63 63 64 64 64 65 65 66 66 67 67 67 67 67 67 67 67 68 68 68 68 68 67 67 68 67 68 68 68 68 67 67 67 67 67 67 67 67 67 67 67 66 66 66 65 66 66 66 66 67 66 66 66 65 65 65 65 65 65 66 66 66
58 59 60 62 63 63 64 63 63 63 63 63 63 63 63 63 63 63 63 63 63 63 63 63 62 62 61 60 60 59 58 59 59 60 60 60 60 60 61 62 62 62 63 63 63 64 64 65 65 65 66 66 67 67 67 67 67 67 67 68 68 68 68 68 68 67 67 67 67 67 67 67 67 67 66 66 66 66 66 66 66 66 66 66 66 66 65 65 65 66 66 66 66 65 65 65 65 65 65 65 65 65 66
57 58 58 60 62 63 63 63 63 63 63 63 62 62 62 63 63 63 63 63 63 63 62 62 62 62 61 61 60 59 58 58 59 59 59 60 60 61 61 62 62 62 62 62 63 63 63 64 64 65 65 66 66 66 66 67 67 67 67 67 68 68 67 67 67 67 67 67 67 67 67 67 67 67 67 66 66 66 65 65 64 65 65 66 66 66 66 65 65 65 65 65 65 65 65 64 64 64 65 65 65 65 65
56 57 58 58 60 62 63 63 63 63 63 62 62 62 62 62 62 62 62 62 63 63 63 62 61 61 61 61 60 60 59 58 59 59 59 60 60 61 61 61 62 62 62 62 62 63 63 63 64 65 65 65 66 66 66 66 67 67 67 67 67 67 67 67 67 67 67 67 67 67 67 67 67 67 67 66 67 67 66 64 64 64 65 66 66 67 67 66 66 65 65 65 65 64 64 64 64 64 64 65 65 65 65
55 56 57 57 58 60 63 63 63 63 63 62 62 62 62 62 62 62 62 62 62 62 63 62 61 61 61 61 61 60 59 59 59 59 59 60 60 60 60 60 60 60 60 61 62 62 63 63 64 64 65 65 65 66 66 66 66 67 66 67 67 67 67 67 67 67 67 67 67 67 67 67 67 67 67 66 66 67 67 65 64 63 64 65 66 66 67 66 66 65 65 65 64 64 64 64 64 64 64 64 65 65 65
55 55 56 57 58 59 63 63 63 63 63 62 62 62 62 62 62 62 62 62 62 62 63 62 61 60 60 60 60 60 59 59 59 59 59 59 59 58 58 58 57 57 57 58 59 60 61 61 61 62 62 63 64 65 65 66 66 66 65 66 66 66 66 66 67 67 67 67 66 66 66 66 66 66 66 66 66 66 67 66 64 63 63 64 65 65 66 65 65 65 65 65 64 64 64 64 64 64 64 64 64 65 65
54 55 55 56 57 58 61 62 63 63 63 62 62 62 62 62 62 62 62 62 62 63 63 62 61 60 59 59 59 59 59 59 59 59 58 58 57 56 57 56 56 55 55 56 56 57 57 58 58 58 59 61 62 63 64 65 65 64 64 64 64 64 64 65 66 66 66 66 66 66 66 66 66 66 66 66 66 66 66 66 65 64 63 63 64 64 65 64 64 65 65 65 65 65 65 65 65 64 64 64 64 65 65
53 54 54 55 56 57 58 60 62 63 63 63 62 62 62 62 62 62 62 62 63 63 62 62 61 61 59 59 59 59 59 59 59 58 58 57 56 55 55 55 55 54 54 55 55 55 55 55 55 55 56 58 59 60 62 63 63 63 63 63 63 63 62 63 64 65 66 66 65 65 65 65 65 65 65 65 65 65 66 66 65 64 63 63 63 63 63 63 64 64 65 66 66 65 65 65 65 64 64 64 64 65 66
53 53 53 54 55 56 57 58 60 62 63 63 63 62 62 62 62 62 62 62 62 62 62 61 61 61 60 59 59 59 59 59 58 58 57 56 56 55 55 55 54 54 54 54 54 54 54 53 53 53 53 55 57 58 59 61 62 62 62 62 62 62 62 62 62 63 64 64 64 64 64 64 64 65 65 65 65 65 65 65 65 64 63 63 64 64 64 63 63 64 65 66 66 66 65 65 65 65 64 64 65 65 66
52 53 53 54 54 55 57 57 58 60 62 62 63 62 62 62 62 62 62 62 62 62 62 61 61 61 61 60 60 59 59 59 58 57 56 56 56 56 56 55 54 54 54 54 54 54 54 53 53 52 52 53 54 56 57 59 60 60 60 60 60 60 60 59 60 61 63 63 63 63 63 63 63 63 63 63 63 64 64 64 64 63 63 63 63 63 63 62 61 61 63 65 66 66 65 65 65 65 64 64 65 65 65
52 52 53 53 54 55 56 57 57 58 60 62 62 62 62 62 62 62 63 62 62 62 62 62 61 60 60 60 59 59 59 59 59 58 57 56 57 57 56 55 54 54 54 53 53 53 53 52 52 52 51 52 53 53 55 57 58 58 59 58 58 58 58 58 58 60 62 62 62 62 62 62 62 61 61 62 62 63 63 63 64 63 63 63 63 63 63 61 59 58 59 62 64 66 66 66 66 65 65 65 65 65 65
52 52 52 53 53 54 55 56 56 57 58 60 62 62 62 62 62 62 63 62 62 62 62 62 62 60 59 58 58 58 58 59 60 59 58 57 57 56 55 55 55 55 56 55 53 52 53 51 50 50 50 51 51 52 53 54 55 56 57 57 57 57 57 57 58 58 59 61 60 60 60 59 60 60 60 62 62 62 63 63 63 63 63 63 63 64 64 62 59 58 58 59 60 62 64 66 66 66 66 65 65 64 64
51 51 52 52 53 53 54 55 55 56 57 58 59 61 62 62 62 62 62 62 62 62 62 62 62 60 59 58 58 58 58 59 59 60 59 58 57 56 54 55 55 56 56 55 54 53 53 51 50 49 49 50 50 51 51 52 53 54 55 56 56 56 56 56 56 56 56 57 57 57 58 58 58 59 60 61 61 62 62 62 62 63 63 64 63 63 62 60 59 59 61 60 59 59 60 64 66 66 66 66 65 65 65
51 51 51 52 52 53 53 54 54 55 55 56 57 58 60 62 62 62 62 63 63 62 62 62 61 60 59 58 58 58 58 58 59 59 59 59 58 57 55 55 54 54 53 53 53 53 53 52 51 50 49 49 49 49 49 50 51 52 53 53 54 54 54 54 54 54 54 54 55 55 55 56 58 58 59 59 59 60 59 60 61 62 63 64 64 64 63 62 63 63 63 63 61 59 59 63 65 66 67 67 67 67 67
51 51 51 51 51 52 53 53 53 54 54 55 56 57 58 60 61 62 62 63 63 62 62 62 61 60 59 59 58 58 58 58 58 59 59 59 58 58 57 55 54 53 53 52 53 53 53 53 53 52 49 49 49 48 49 49 49 50 50 51 51 52 53 53 53 52 52 53 53 53 53 55 56 56 57 58 58 58 58 60 60 61 62 63 64 65 65 64 64 64 64 64 64 62 59 62 64 66 67 67 68 68 69
51 51 51 51 51 51 52 52 53 53 53 54 55 55 56 57 59 61 62 62 62 62 62 62 62 61 60 59 59 58 58 57 58 58 59 59 59 58 58 57 56 55 53 53 53 53 53 54 54 53 50 49 49 49 49 49 49 49 49 49 49 50 50 50 50 50 50 50 51 51 52 53 54 55 56 56 57 57 57 57 58 58 61 62 63 64 65 65 64 64 65 64 64 63 60 63 65 66 67 67 68 69 69
50 51 50 51 51 51 51 51 52 52 53 53 54 54 54 54 55 56 58 61 62 63 63 62 62 61 60 60 59 58 57 57 58 58 58 58 58 58 57 57 56 55 54 54 54 54 54 54 54 53 51 49 49 49 49 48 48 48 48 48 48 49 49 49 48 48 48 49 49 49 50 51 51 52 53 54 55 55 55 55 56 57 58 59 61 62 63 62 62 62 62 62 62 62 62 63 64 66 67 67 68 69 69
50 51 50 50 50 51 51 51 51 52 52 53 53 53 53 53 54 54 55 58 60 62 63 62 62 62 61 60 59 58 58 58 58 58 58 58 58 58 57 56 56 55 54 54 55 55 55 55 55 54 52 51 50 49 48 47 47 47 47 47 47 47 47 47 47 47 47 47 47 48 48 49 49 49 50 52 53 53 53 54 55 56 57 58 60 61 62 63 63 63 62 62 62 62 62 63 64 66 67 68 68 69 69
50 50 50 50 50 50 50 51 51 51 52 52 52 52 52 53 53 54 55 57 60 62 63 62 62 62 61 60 59 58 58 58 58 58 58 57 58 58 58 57 56 55 55 54 55 55 56 55 55 54 53 53 52 50 48 46 46 47 47 47 46 46 46 46 46 46 46 46 46 47 47 47 47 48 49 49 50 52 53 53 54 54 55 57 58 58 59 61 63 64 65 64 62 62 62 62 64 65 67 68 68 69 69